Other Public Products
Issued by NWS Grand Forks, ND

Home | Current Version | Previous Version | Graphics & Text | Print | Product List | Glossary On
Versions: 1 2 3 4 5 6 7 8 9 10 11 12 13 14 15 16 17 18 19 20 21 22 23 24 25 26 27 28 29 30 31 32 33 34 35 36 37 38 39 40 41 42 43 44 45 46 47 48 49 50
000
FPUS83 KFGF 151510
OPUFGF
PRAIRIE TO PINES WEATHER ROUNDUP
NATIONAL WEATHER SERVICE EASTERN NORTH DAKOTA/GRAND FORKS ND
1000 AM CDT TUE APR 15 2014

 **SATELLITE DATA USED TO AUGMENT SKY COVER AT AUTOMATED STATIONS**
 *****  WEATHER ACROSS EASTERN NORTH DAKOTA  *****

CITY           SKY/WX    TMP DP  RH WIND       PRES   REMARKS
GRAND FORKS    PTSUNNY   20   6  55 VRB3      30.11F
GRAND FORKS AF SUNNY     21   7  53 S8        30.14F WCI  12
GRAND CITY NWS   N/A     21 N/A N/A S5          N/A  WCI  15
BUXTON         NOT AVBL
DEVILS LAKE    MOSUNNY   23   9  54 S13       30.03F WCI  11
FARGO          SUNNY     22   4  46 CALM      30.16F
WAHPETON ARPT  SUNNY     21   7  53 SE5       30.17F WCI  15
$$

 *****  WEATHER ACROSS CENTRAL AND WESTERN NORTH DAKOTA  *****

CITY           SKY/WX    TMP DP  RH WIND       PRES   REMARKS
JAMESTOWN      CLOUDY    23  11  60 SE16      30.04F WCI  10
BISMARCK       CLOUDY    28  14  55 S17       29.94F WCI  16
MINOT          CLOUDY    27   8  44 SE20      29.90F WCI  13
MINOT AFB      CLOUDY    28  10  48 SE22      29.90F WCI  13
GARRISON         N/A     26  14  60 SE16G22   29.89F WCI  14
WILLISTON      PTSUNNY   30  13  49 SE14      29.76F WCI  19
DICKINSON      CLOUDY    28  14  55 SE17      29.76F WCI  16
HETTINGER      CLOUDY    29  15  56 SE16G22   29.78F WCI  17
$$

 *****  OTHER OBSERVATIONS NORTHEAST NORTH DAKOTA  *****

CITY           SKY/WX    TMP DP  RH WIND       PRES   REMARKS
WALHALLA         N/A     19   5  53 S9        30.12F WCI   9
LANGDON        FAIR      23   7  50 S14       30.04F WCI  11
CAVALIER       FAIR      19   9  63 S8        30.13F WCI   9
GRAFTON        FAIR      19   3  49 S6        30.14F WCI  11
CANDO          FAIR      23  10  58 S14       30.02F WCI  11
FORT TOTTEN      N/A     22  10  59 S12       29.95S WCI  10
ROLLA          FAIR      21   9  58 SE17      29.99F WCI   7
RUGBY          FAIR      23  14  68 SE14G20   29.98F WCI  11
 ***** THE ABOVE OBSERVATIONS ARE NON NWS ARE NOT QUALITY
        CONTROLLED AND MAY MIS-REPORT RAIN FOR SNOW...
$$

 *****  OTHER OBSERVATIONS SOUTHEAST NORTH DAKOTA *****

CITY           SKY/WX    TMP DP  RH WIND       PRES   REMARKS
COOPERSTOWN    FAIR      19  10  68 S12       30.08F WCI   7
VALLEY CITY    NOT AVBL
OAKES          FAIR      25  16  68 E14       30.09F WCI  13
GWINNER        SUNNY     27  10  50 SE9       30.12F WCI  17
SHEYENNE NWR     N/A     26   8  45 SE7       29.95  WCI  18
BUFFALO        NOT AVBL
WYNDMERE       NOT AVBL
 ***** THE ABOVE OBSERVATIONS ARE NON NWS ARE NOT QUALITY
       CONTROLLED AND MAY MIS-REPORT RAIN FOR SNOW...
$$

  *****  WEATHER ACROSS NORTHERN MINNESOTA  *****

CITY           SKY/WX    TMP DP  RH WIND       PRES   REMARKS
FLAG ISLAND    SUNNY      9  -2  61 CALM      30.13S
WARROAD        SUNNY     14   1  57 CALM      30.14F
ROSEAU         SUNNY     18   1  49 CALM      30.13F
HALLOCK          N/A     18   3  53 SE7       30.14F WCI   8
THF RVR FALLS  SUNNY     19   1  45 CALM      30.14F
HALSTAD          N/A     20   5  51 SW3         N/A
FOSSTON        SUNNY     18   1  49 CALM      30.14R
BAUDETTE       SUNNY     14   0  53 NW3       30.13S
WASKISH        SUNNY     14   1  57 W7        30.13S WCI   4
CROOKSTON      SUNNY     19   3  49 S5        30.17F WCI  13
$$
  *****  WEATHER ACROSS CENTRAL AND WEST MINNESOTA  *****

CITY           SKY/WX    TMP DP  RH WIND       PRES   REMARKS
BEMIDJI        SUNNY     17  -2  43 N8        30.10F WCI   7
PARK RAPIDS    SUNNY     18   2  49 W5        30.12R WCI  11
WADENA         SUNNY     18   7  62 CALM      30.13F
DETROIT LAKES  SUNNY     19   9  63 CALM      30.13F
MOORHEAD       SUNNY     21   7  53 SW1       30.17F
FERGUS FALLS   SUNNY     19   1  45 SW3       30.15F
ELBOW LAKE     FAIR      19   2  47 CALM      30.16F
MORRIS MN      SUNNY     23   7  50 W7        30.15F WCI  15
STAPLES        SUNNY     18   1  49 N5        30.13F WCI  11
WHEATON        SUNNY     25  10  54 CALM      30.19F
$$
  *****  WEATHER ELSEWHERE ACROSS MINNESOTA  *****

CITY           SKY/WX    TMP DP  RH WIND       PRES   REMARKS
DULUTH         SUNNY     20   5  52 W7        30.07F WCI  11
INTRNTL FALLS  SUNNY     16   1  51 CALM      30.10F
ELY            SUNNY     18  -2  41 NW3       30.06S
CLOQUET        SUNNY     19   3  49 W6        30.09S WCI  11
BRAINERD       SUNNY     22  -3  33 CALM      30.14S
HIBBING        SUNNY     18   3  52 MISG      30.09S
ALEXANDRIA     SUNNY     18   5  57 SW5       30.15F WCI  11
SAINT CLOUD    SUNNY     23   4  44 NW7       30.16S WCI  15
MINNEAPOLIS    MOSUNNY   24   5  44 W8        30.17S WCI  15
$$

  *****  WEATHER ACROSS SOUTH DAKOTA  *****

CITY           SKY/WX    TMP DP  RH WIND       PRES   REMARKS
SIOUX FALLS    SUNNY     28  13  53 SE7       30.14F WCI  21
BROOKINGS      NOT AVBL
WATERTOWN      SUNNY     24  15  68 S9        30.09F WCI  14
HURON          SUNNY     29  18  63 S13G21    30.08F WCI  19
SISSETON         N/A     22  15  75 S7        30.14F WCI  13
ABERDEEN       SUNNY     27  13  55 S13       30.08F WCI  16
MITCHELL       SUNNY     30  22  72 SE16      30.10F WCI  19
PIERRE         SUNNY     32  20  61 SE21      29.91F WCI  20
MOBRIDGE       MOSUNNY   30  16  56 SE22      29.91F WCI  17
RAPID CITY     MOSUNNY   37  22  54 SE3       29.76F
$$

  *****  SOME WEATHER IN NEARBY STATES *****

CITY           SKY/WX    TMP DP  RH WIND       PRES   REMARKS
GLASGOW MT     MOSUNNY   35  16  45 SE12      29.63F
GREAT FALLS MT CLOUDY    50  24  36 SW17      29.67F
CHEYENNE WY    PTSUNNY   41  18  39 W23       29.92S
SCOTTSBLUFF NE SUNNY     43  25  49 W6        29.89F
OMAHA NE       SUNNY     34  20  56 VRB5      30.20S
DES MOINES IA  SUNNY     33  16  49 NW9       30.21S
DAVENPORT IA   SUNNY     31  19  61 NW15      30.17R WCI  20
CHICAGO IL     MOSUNNY   31  11  43 N15G21    30.11R WCI  20
EAU CLAIRE WI  PTSUNNY   26  11  52 NW9       30.12S WCI  17
LA CROSSE WI   SUNNY     30  15  53 NW9       30.14S WCI  22
$$

  *****  SOME NATIONAL WEATHER *****

CITY           SKY/WX    TMP DP  RH WIND       PRES   REMARKS
LA GUARDIA NY  LGT RAIN  59  55  87 S23G35    29.65F FOG
RALEIGH NC     CLOUDY    68  62  81 SW15      29.72R
ATLANTA GA     LGT RAIN  48  45  87 NW18G32   29.82R
NEW ORLEANS LA CLOUDY    47  39  74 N21G31    30.13R
OKLAHOMA CITY  SUNNY     51  19  28 NW7       30.26S
ALBUQUERQUE NM MOSUNNY   44  16  32 S8        30.23R
SALT LAKE CITY CLOUDY    47  23  38 SE8       30.02F
LOS ANGELES CA CLOUDY    55  52  88 W5        29.98R FOG
BOISE ID       CLOUDY    45  29  53 N3        29.95R
SEATTLE WA     PTSUNNY   48  31  51 S8        30.19R
$$

*** WEATHER ACROSS MANITOBA...SASKATCHEWAN AND ONTARIO ***
                ***ONTARIO***

CITY           SKY/WX    TMP DP  RH WIND       PRES   REMARKS
GERALDTON      PTSUNNY   14  -2  48 W15       30.00S WCI  -1
THUNDER BAY    MOSUNNY   23   0  36 NW12      30.08S WCI  12
SIOUX LOOKOUT  MOSUNNY   10  -6  48 N6        30.08S WCI   1
TORONTO        CLOUDY    30  23  74 NW21G29   29.73F WCI  17
BIG TROUT LK   MOSUNNY    5  -4  66 NW13      30.01F WCI -12
PICKLE LAKE    PTSUNNY   12  -4  48 W8        30.01F WCI   1
DRYDEN         SUNNY     12  -6  44 N3        30.08F
KENORA         NOT AVBL
$$
                *** MANITOBA***

CITY           SKY/WX    TMP DP  RH WIND       PRES   REMARKS
BRANDON        CLOUDY    19  12  73 SE10      30.03F WCI   8
DAUPHIN        SUNNY     21   9  58 VRB6      30.04F WCI  14
ISLAND LAKE    SUNNY      9  -4  56 W7        30.10S WCI  -3
PILOT MOUND      N/A     21  10  63 S14         N/A  WCI   8
THE PAS        MOSUNNY   16  -8  35 SE10      30.09S WCI   3
THOMPSON       SUNNY      9  -4  56 NW10      30.15F WCI  -6
WINNIPEG       PTSUNNY   18   3  53 S9        30.14F WCI   6
LYNN LAKE      SUNNY      5  -9  51 N6        30.15S WCI  -6
CHURCHILL      CRYSTALS  -2  -8  78 NW15      30.13S WCI -22
GILLAM         SUNNY      0  -8  71 W7        30.12S WCI -13
$$
                ***SASKATCHEWAN***

CITY           SKY/WX    TMP DP  RH WIND       PRES   REMARKS
ESTEVAN        CLOUDY    28  14  54 SE13      29.81F WCI  18
KINDERSLEY     PTSUNNY   32  21  64 NE15      29.60R WCI  22
LLOYDMINSTER   LGT SNOW  27  23  86 E15       29.72R VSB 1   WCI  15
PRINCE ALBERT  FLURRIES  23  16  74 E13       29.86S WCI  11
REGINA         PTSUNNY   28  16  59 SE28G36   29.74F WCI  13



USA.gov is the U.S. government's official web portal to all federal, state and local government web resources and services.